Weather History for Novato, CA

Change the Weather History Date:

Thursday, February 14, 2013

  Actual Average (KAPC) Record (KAPC)
Temperature  
Mean Temperature 51 °F 49 °F  
Max Temperature 69 °F 60 °F 68 °F (2006)
Min Temperature 33 °F 39 °F 30 °F (2012)
Degree Days  
Heating Degree Days 14    
Month to date heating degree days  
Since 1 July heating degree days  
Cooling Degree Days 0    
Month to date cooling degree days  
Year to date cooling degree days  
Growing Degree Days 1 (Base 50)    
Moisture  
Dew Point 42 °F    
Average Humidity 84    
Maximum Humidity 100    
Minimum Humidity 33    
Precipitation  
Precipitation 0.00 in - 1.48 in (1940)
Month to date precipitation  
Year to date precipitation  
Since 1 July precipitation  
Sea Level Pressure  
Sea Level Pressure 30.22 in    
Wind  
Wind Speed 2 mph (SSE)    
Max Wind Speed 8 mph    
Max Gust Speed -    
Visibility 7 miles    
Events Fog , Rain    
T = Trace of Precipitation, MM = Missing Value Source: NWS Daily Summary

Daily Weather History Graph

Daily Weather History Graph

Search for Another Location

Airport:

Trip Planner

Search our weather history database for the weather conditions in past years. The results will help you decide how hot, cold, wet, or windy it might be!

Date:

Astronomy

Feb. 14, 2013 Rise Set
Actual Time 7:01 AM PST 5:48 PM PST
Civil Twilight 6:34 AM PST 6:15 PM PST
Nautical Twilight 6:03 AM PST 6:46 PM PST
Astronomical Twilight 5:32 AM PST 7:16 PM PST
Moon 9:11 AM PST (2/14) 10:50 PM PST (2/14)
Length of Visible Light 11h 41m
Length of Day
10h 46m
Waxing Crescent, 22% of the Moon is Illuminated
Feb 14
Waxing Crescent
Feb 17
First Quarter
Feb 25
Full
Mar 4
Last Quarter
Mar 11
New

Hourly Weather History & Observations

Time (PST) Temp. Windchill Dew Point Humidity Pressure Visibility Wind Dir Wind Speed Gust Speed Precip Events Conditions
12:15 AM 39.2 °F - 39.2 °F 100% 30.25 in 0.5 mi Calm Calm - N/A Fog Fog
12:35 AM 39.2 °F - 39.2 °F 100% 30.24 in 2.5 mi Calm Calm - N/A   Partly Cloudy
12:55 AM 39.2 °F - 39.2 °F 100% 30.25 in 2.5 mi Calm Calm - N/A   Clear
1:15 AM 37.4 °F - 37.4 °F 100% 30.25 in 1.2 mi Calm Calm - N/A   Clear
1:35 AM 37.4 °F - 37.4 °F 100% 30.24 in 0.2 mi Calm Calm - N/A Fog Fog
1:55 AM 37.4 °F - 37.4 °F 100% 30.24 in 0.2 mi Calm Calm - N/A Fog Fog
2:15 AM 35.6 °F - 35.6 °F 100% 30.25 in 0.2 mi Calm Calm - N/A Fog Fog
2:35 AM 37.4 °F 34.9 °F 37.4 °F 100% 30.25 in 0.5 mi South 3.5 mph - N/A Fog Fog
2:55 AM 37.4 °F 32.1 °F 37.4 °F 100% 30.24 in 1.0 mi South 6.9 mph - N/A   Clear
3:15 AM 37.4 °F 31.4 °F 37.4 °F 100% 30.23 in 10.0 mi South 8.1 mph - N/A   Clear
3:35 AM 33.8 °F 28.6 °F 33.8 °F 100% 30.24 in 0.2 mi North 5.8 mph - N/A Fog Fog
3:55 AM 35.6 °F - 35.6 °F 100% 30.23 in 0.2 mi Calm Calm - N/A Rain Light Rain
4:15 AM 35.6 °F - 35.6 °F 100% 30.23 in 0.2 mi Calm Calm - N/A Rain Light Rain
4:35 AM 35.6 °F - 35.6 °F 100% 30.23 in 0.2 mi Calm Calm - N/A Rain Light Rain
4:55 AM 35.6 °F - 35.6 °F 100% 30.23 in 2.0 mi Calm Calm - N/A Rain Light Rain
5:15 AM 33.8 °F - 33.8 °F 100% 30.24 in 0.2 mi Calm Calm - N/A Fog Fog
5:35 AM 35.6 °F - 35.6 °F 100% 30.24 in 0.2 mi Calm Calm - N/A Fog Fog
5:55 AM 35.6 °F - 35.6 °F 100% 30.24 in 0.2 mi Calm Calm - N/A Fog Fog
6:15 AM 35.6 °F - 35.6 °F 100% 30.25 in 0.2 mi Calm Calm - N/A   Overcast
6:35 AM 35.6 °F - 35.6 °F 100% 30.24 in 0.2 mi Calm Calm - N/A Fog Fog
6:55 AM 35.6 °F - 35.6 °F 100% 30.25 in 0.2 mi Calm Calm - N/A Fog Fog
7:15 AM 35.6 °F - 35.6 °F 100% 30.25 in 0.2 mi Calm Calm - N/A Fog Fog
7:35 AM 35.6 °F - 35.6 °F 100% 30.25 in 0.2 mi Calm Calm - N/A Fog Fog
7:55 AM 35.6 °F - 35.6 °F 100% 30.26 in 0.2 mi Calm Calm - N/A Fog Fog
8:15 AM 37.4 °F 33.8 °F 37.4 °F 100% 30.27 in 0.8 mi North 4.6 mph - N/A   Overcast
8:35 AM 39.2 °F 37.0 °F 39.2 °F 100% 30.27 in 3.0 mi NNE 3.5 mph - N/A   Scattered Clouds
8:55 AM 41.0 °F - 41.0 °F 100% 30.27 in 5.0 mi Calm Calm - N/A   Partly Cloudy
9:15 AM 42.8 °F - 42.8 °F 100% 30.27 in 8.0 mi Calm Calm - N/A   Clear
9:35 AM 44.6 °F - 44.6 °F 100% 30.26 in 10.0 mi Calm Calm - N/A   Clear
9:55 AM 46.4 °F - 46.4 °F 100% 30.26 in 10.0 mi Calm Calm - N/A   Clear
10:15 AM 50.0 °F - 50.0 °F 100% 30.26 in 10.0 mi Calm Calm - N/A   Clear
10:35 AM 53.6 °F - 50.0 °F 88% 30.25 in 10.0 mi Calm Calm - N/A   Clear
10:55 AM 55.4 °F - 48.2 °F 77% 30.25 in 10.0 mi Calm Calm - N/A   Clear
11:15 AM 57.2 °F - 48.2 °F 72% 30.24 in 10.0 mi SE 4.6 mph - N/A   Clear
11:35 AM 59.0 °F - 44.6 °F 59% 30.24 in 10.0 mi ESE 8.1 mph - N/A   Clear
11:55 AM 60.8 °F - 44.6 °F 55% 30.23 in 10.0 mi SE 5.8 mph - N/A   Clear
12:15 PM 60.8 °F - 44.6 °F 55% 30.22 in 10.0 mi SE 4.6 mph - N/A   Clear
12:35 PM 62.6 °F - 44.6 °F 52% 30.22 in 10.0 mi South 6.9 mph - N/A   Clear
12:55 PM 64.4 °F - 39.2 °F 40% 30.21 in 10.0 mi SSE 4.6 mph - N/A   Clear
1:15 PM 66.2 °F - 41.0 °F 40% 30.21 in 10.0 mi SSE 6.9 mph - N/A   Clear
1:35 PM 66.2 °F - 41.0 °F 40% 30.19 in 10.0 mi SSE 6.9 mph - N/A   Clear
1:55 PM 66.2 °F - 41.0 °F 40% 30.18 in 10.0 mi SSE 5.8 mph - N/A   Clear
2:15 PM 68.0 °F - 39.2 °F 35% 30.18 in 10.0 mi SSE 5.8 mph - N/A   Clear
2:35 PM 68.0 °F - 39.2 °F 35% 30.18 in 10.0 mi Calm Calm - N/A   Clear
2:55 PM 68.0 °F - 41.0 °F 37% 30.18 in 10.0 mi ESE 4.6 mph - N/A   Clear
3:15 PM 69.8 °F - 39.2 °F 33% 30.18 in 10.0 mi SSE 6.9 mph - N/A   Clear
3:35 PM 68.0 °F - 42.8 °F 40% 30.18 in 10.0 mi SSE 4.6 mph - N/A   Clear
3:55 PM 68.0 °F - 41.0 °F 37% 30.18 in 10.0 mi South 5.8 mph - N/A   Clear
4:15 PM 68.0 °F - 44.6 °F 43% 30.17 in 10.0 mi South 4.6 mph - N/A   Clear
4:35 PM 68.0 °F - 42.8 °F 40% 30.17 in 10.0 mi SSE 4.6 mph - N/A   Clear
4:55 PM 66.2 °F - 44.6 °F 46% 30.17 in 10.0 mi Calm Calm - N/A   Clear
5:15 PM 62.6 °F - 48.2 °F 59% 30.17 in 10.0 mi Calm Calm - N/A   Clear
5:35 PM 59.0 °F - 46.4 °F 63% 30.17 in 10.0 mi Calm Calm - N/A   Clear
5:55 PM 53.6 °F - 50.0 °F 88% 30.18 in 10.0 mi North 5.8 mph - N/A   Clear
6:15 PM 51.8 °F - 50.0 °F 94% 30.18 in 10.0 mi North 5.8 mph - N/A   Clear
6:35 PM 53.6 °F - 50.0 °F 88% 30.19 in 10.0 mi Calm Calm - N/A   Clear
6:55 PM 51.8 °F - 50.0 °F 94% 30.20 in 10.0 mi NNE 3.5 mph - N/A   Clear
7:15 PM 48.2 °F - 48.2 °F 100% 30.19 in 10.0 mi NW 3.5 mph - N/A   Clear
7:35 PM 48.2 °F - 48.2 °F 100% 30.19 in 10.0 mi Calm Calm - N/A   Clear
7:55 PM 48.2 °F - 48.2 °F 100% 30.20 in 10.0 mi Calm Calm - N/A   Clear
8:15 PM 48.2 °F - 48.2 °F 100% 30.20 in 10.0 mi Calm Calm - N/A   Clear
8:35 PM 48.2 °F - 48.2 °F 100% 30.20 in 10.0 mi Calm Calm - N/A   Clear
8:55 PM 46.4 °F - 46.4 °F 100% 30.20 in 10.0 mi Calm Calm - N/A   Clear
9:15 PM 46.4 °F - 46.4 °F 100% 30.21 in 10.0 mi Calm Calm - N/A   Clear
9:35 PM 46.4 °F - 46.4 °F 100% 30.21 in 10.0 mi Calm Calm - N/A   Clear
9:55 PM 44.6 °F 43.1 °F 44.6 °F 100% 30.21 in 10.0 mi SSW 3.5 mph - N/A   Clear
10:15 PM 46.4 °F 45.2 °F 46.4 °F 100% 30.22 in 10.0 mi SSW 3.5 mph - N/A   Clear
10:35 PM 44.6 °F - 44.6 °F 100% 30.22 in 10.0 mi Calm Calm - N/A   Clear
10:55 PM 42.8 °F - 42.8 °F 100% 30.22 in 10.0 mi Calm Calm - N/A   Clear
11:15 PM 42.8 °F - 42.8 °F 100% 30.22 in 10.0 mi Calm Calm - N/A   Clear
11:35 PM 42.8 °F - 42.8 °F 100% 30.23 in 10.0 mi Calm Calm - N/A   Clear
11:55 PM 41.0 °F - 41.0 °F 100% 30.23 in 5.0 mi Calm Calm - N/A   Clear